Погода в Волжском

Россия / Оренбургская область     52°31′35″N   51°37′58″E
темп.,
°C
ветер,
м/с
пор.,
м/с
влажн.,
%
обл.,
%
осадки,
мм/ч
давл.,
гПа
погр.,
м
26 февраля, пт
пт2623:00−18ю71396100 1.5 1025529
02:00−16ю71295100 1.0 1022584
05:00−15ююв61295100 1.9 1021566
08:00−14ююв61195100 0.4 1019479
11:00−13ююв61094100 0.8 1018507
14:00−12юв6992100 0.2 1018517
17:00−12юв5992100 0.2 1018498
20:00−14юв51196100 0.1 1016291
27 февраля, сб
сб2723:00−12ююв71395100 0.1 1013388
02:00−10ююв81595100 1.9 1007436
05:00−7ююв81495100 6.0 1004425
08:00−4ю4797100 2.1 1001183
11:00+1з38100100 2.3 1001393
14:000зюз5999100 0.1 1001481
17:000зюз589499 0.1 1001475
20:000юз4895100 0.1 1002377
28 февраля, вс
вс2823:000зюз5897100 0.2 1001450
02:00−1юз4896100 0.1 1000359
05:00−1юз4895100 0.2 1000295
08:00−3юз4897100 0.1 1000226
11:00−1юз4697100 0.7 1001351
14:00−3зюз5697100 0.6 1002311
17:00−5з469599 1.3 1005328
20:00−9сз599497 0.1 1007254
1 марта, пн
пн123:00−12сз6109495 0.2 1009264
02:00−13ссз5109599 0.1 1011239
05:00−15ссз499598 0.1 1013223
08:00−18ссз489794 0.0 1015168
11:00−17ссз479478 0.0 1018228
14:00−16сз469339 0.0 1019249
17:00−15ссз579456 0.0 1020300
20:00−19сз479886 0.0 1022117
2 марта, вт
вт223:00−21сз349971 0.0 102448
02:00−21сз339926 0.0 102328
05:00−22зсз239931 0.0 102323
08:00−23з239913 0.0 102321
11:00−19зюз36956 0.0 1022148
14:00−15юз599267 0.0 1020277
17:00−13ююз7129383 0.0 1016369
20:00−11юз71394100 0.4 1014499